This is the latest recevied weather packets stored in our database for station/object K0PFX-8. If no packets are shown the sender has not sent any weather packets the latest 10 day(s).
| Time | Temp. | Humidity | Pressure | Rain* | Wind** | Luminosity | Snow |
|---|---|---|---|---|---|---|---|
| 1778287716 | 16.11° C | 77% | 1009.2 hPa | 0 mm | 0 m/s | - | - |
| 1778286816 | 16.67° C | 74% | 1009.6 hPa | 0 mm | 2.24 m/s, 25° | - | - |
| 1778285916 | 17.22° C | 73% | 1009.7 hPa | 0 mm | 0.89 m/s, 359° | - | - |
| 1778285015 | 18.33° C | 63% | 1009.5 hPa | 0 mm | 2.24 m/s, 356° | - | - |
| 1778284117 | 19.44° C | 55% | 1009.6 hPa | 0 mm | 1.34 m/s, 287° | - | - |
| 1778283216 | 19.44° C | 51% | 1009.3 hPa | 0 mm | 0.89 m/s, 359° | - | - |
| 1778282314 | 20° C | 53% | 1009.6 hPa | 0 mm | 0 m/s | - | - |
| 1778281413 | 20.56° C | 49% | 1009.5 hPa | 0 mm | 1.34 m/s, 259° | - | - |
| 1778280515 | 21.11° C | 50% | 1009.3 hPa | 0 mm | 0 m/s | - | - |
| 1778279613 | 21.11° C | 48% | 1009.3 hPa | 0 mm | 0 m/s | - | - |
| 1778278715 | 21.67° C | 45% | 1009.4 hPa | 0 mm | 4.47 m/s, 233° | - | - |
| 1778277814 | 22.22° C | 42% | 1009.4 hPa | 0 mm | 2.24 m/s, 257° | - | - |
| 1778276915 | 22.22° C | 43% | 1009.6 hPa | 0 mm | 3.13 m/s, 284° | - | - |
| 1778276013 | 22.22° C | 42% | 1009.9 hPa | 0 mm | 3.13 m/s, 221° | - | - |
| 1778275114 | 22.22° C | 42% | 1010 hPa | 0 mm | 2.68 m/s, 276° | - | - |
| 1778274213 | 22.22° C | 41% | 1010.1 hPa | 0 mm | 3.58 m/s, 290° | - | - |
| 1778273314 | 22.22° C | 41% | 1010.1 hPa | 0 mm | 4.92 m/s, 277° | - | - |
| 1778272413 | 22.22° C | 41% | 1010.3 hPa | 0 mm | 2.68 m/s, 221° | - | - |
| 1778271514 | 22.22° C | 42% | 1010.3 hPa | 0 mm | 3.58 m/s, 238° | - | - |
| 1778270613 | 22.78° C | 42% | 1010.3 hPa | 0 mm | 4.92 m/s, 252° | - | - |
| 1778269714 | 22.22° C | 45% | 1010.4 hPa | 0 mm | 3.13 m/s, 252° | - | - |
| 1778268814 | 21.67° C | 47% | 1010.6 hPa | 0 mm | 1.34 m/s, 214° | - | - |
| 1778267914 | 21.11° C | 47% | 1010.9 hPa | 0 mm | 2.68 m/s, 246° | - | - |
| 1778267013 | 20.56° C | 48% | 1010.9 hPa | 0 mm | 0.45 m/s, 172° | - | - |
| 1778266114 | 20° C | 47% | 1011.1 hPa | 0 mm | 2.68 m/s, 231° | - | - |
* Rain latest hour (hover to see other rain measurements)
** Current wind speed in m/s (hover to see current wind gust speed)